datetime,flow volume
1921-10-01,823.1405
1921-10-02,823.1405
1921-10-03,823.1405
1921-10-04,823.1405
1921-10-05,823.1405
1921-10-06,813.22314
1921-10-07,813.22314
1921-10-08,805.28926
1921-10-09,805.28926
1921-10-10,805.28926
1921-10-11,805.28926
1921-10-12,795.3719
1921-10-13,795.3719
1921-10-14,805.28926
1921-10-15,795.3719
1921-10-16,795.3719
1921-10-17,805.28926
1921-10-18,795.3719
1921-10-19,795.3719
1921-10-20,795.3719
1921-10-21,795.3719
1921-10-22,795.3719
1921-10-23,795.3719
1921-10-24,795.3719
1921-10-25,795.3719
1921-10-26,795.3719
1921-10-27,795.3719
1921-10-28,805.28926
1921-10-29,813.22314
1921-10-30,813.22314
1921-10-31,813.22314
1921-11-01,753.71901
1921-11-02,753.71901
1921-11-03,763.63636
1921-11-04,763.63636
1921-11-05,763.63636
1921-11-06,763.63636
1921-11-07,763.63636
1921-11-08,763.63636
1921-11-09,763.63636
1921-11-10,763.63636
1921-11-11,763.63636
1921-11-12,763.63636
1921-11-13,763.63636
1921-11-14,763.63636
1921-11-15,753.71901
1921-11-16,753.71901
1921-11-17,753.71901
1921-11-18,753.71901
1921-11-19,753.71901
1921-11-20,745.78512
1921-11-21,745.78512
1921-11-22,745.78512
1921-11-23,735.86777
1921-11-24,735.86777
1921-11-25,745.78512
1921-11-26,745.78512
1921-11-27,763.63636
1921-11-28,763.63636
1921-11-29,781.4876
1921-11-30,781.4876
1921-12-01,829.09091
1921-12-02,809.2562
1921-12-03,829.09091
1921-12-04,868.76033
1921-12-05,868.76033
1921-12-06,868.76033
1921-12-07,848.92562
1921-12-08,848.92562
1921-12-09,848.92562
1921-12-10,848.92562
1921-12-11,848.92562
1921-12-12,848.92562
1921-12-13,848.92562
1921-12-14,848.92562
1921-12-15,848.92562
1921-12-16,848.92562
1921-12-17,848.92562
1921-12-18,848.92562
1921-12-19,848.92562
1921-12-20,848.92562
1921-12-21,848.92562
1921-12-22,848.92562
1921-12-23,848.92562
1921-12-24,848.92562
1921-12-25,848.92562
1921-12-26,848.92562
1921-12-27,848.92562
1921-12-28,848.92562
1921-12-29,848.92562
1921-12-30,848.92562
1921-12-31,848.92562
1922-01-01,723.96694
1922-01-02,723.96694
1922-01-03,723.96694
1922-01-04,723.96694
1922-01-05,723.96694
1922-01-06,723.96694
1922-01-07,723.96694
1922-01-08,723.96694
1922-01-09,723.96694
1922-01-10,723.96694
1922-01-11,723.96694
1922-01-12,723.96694
1922-01-13,723.96694
1922-01-14,723.96694
1922-01-15,723.96694
1922-01-16,723.96694
1922-01-17,723.96694
1922-01-18,723.96694
1922-01-19,723.96694
1922-01-20,723.96694
1922-01-21,723.96694
1922-01-22,723.96694
1922-01-23,723.96694
1922-01-24,723.96694
1922-01-25,723.96694
1922-01-26,723.96694
1922-01-27,723.96694
1922-01-28,723.96694
1922-01-29,723.96694
1922-01-30,723.96694
1922-01-31,723.96694
1922-02-01,870.7438
1922-02-02,870.7438
1922-02-03,870.7438
1922-02-04,870.7438
1922-02-05,870.7438
1922-02-06,870.7438
1922-02-07,870.7438
1922-02-08,870.7438
1922-02-09,870.7438
1922-02-10,870.7438
1922-02-11,870.7438
1922-02-12,870.7438
1922-02-13,870.7438
1922-02-14,870.7438
1922-02-15,870.7438
1922-02-16,870.7438
1922-02-17,870.7438
1922-02-18,870.7438
1922-02-19,870.7438
1922-02-20,870.7438
1922-02-21,870.7438
1922-02-22,870.7438
1922-02-23,870.7438
1922-02-24,870.7438
1922-02-25,870.7438
1922-02-26,870.7438
1922-02-27,870.7438
1922-02-28,870.7438
1922-03-01,2023.1405
1922-03-02,2023.1405
1922-03-03,2023.1405
1922-03-04,2023.1405
1922-03-05,2023.1405
1922-03-06,2023.1405
1922-03-07,2023.1405
1922-03-08,2023.1405
1922-03-09,2023.1405
1922-03-10,2023.1405
1922-03-11,2023.1405
1922-03-12,2023.1405
1922-03-13,2023.1405
1922-03-14,2023.1405
1922-03-15,2023.1405
1922-03-16,2023.1405
1922-03-17,2023.1405
1922-03-18,2023.1405
1922-03-19,2023.1405
1922-03-20,2023.1405
1922-03-21,2023.1405
1922-03-22,2023.1405
1922-03-23,2023.1405
1922-03-24,2023.1405
1922-03-25,2023.1405
1922-03-26,2023.1405
1922-03-27,2023.1405
1922-03-28,2023.1405
1922-03-29,2023.1405
1922-03-30,2023.1405
1922-03-31,2023.1405
1922-04-01,3530.57851
1922-04-02,3728.92562
1922-04-03,3808.26446
1922-04-04,3768.59504
1922-04-05,4006.61157
1922-04-06,3887.60331
1922-04-07,3867.7686
1922-04-08,3907.43802
1922-04-09,3867.7686
1922-04-10,3768.59504
1922-04-11,3808.26446
1922-04-12,3966.94215
1922-04-13,3907.43802
1922-04-14,3887.60331
1922-04-15,3669.42149
1922-04-16,3578.18182
1922-04-17,3578.18182
1922-04-18,3649.58678
1922-04-19,3625.78512
1922-04-20,3768.59504
1922-04-21,5216.52893
1922-04-22,6188.42975
1922-04-23,6247.93388
1922-04-24,5950.41322
1922-04-25,7438.01653
1922-04-26,7755.3719
1922-04-27,7596.69421
1922-04-28,7914.04959
1922-04-29,8548.76033
1922-04-30,9183.47107
1922-05-01,12912.3967
1922-05-02,12912.3967
1922-05-03,13071.0744
1922-05-04,13884.2975
1922-05-05,14300.8265
1922-05-06,16343.8017
1922-05-07,19160.3306
1922-05-08,22472.7273
1922-05-09,22472.7273
1922-05-10,22056.1984
1922-05-11,16561.9835
1922-05-12,15153.719
1922-05-13,13229.7521
1922-05-14,13289.2562
1922-05-15,14677.686
1922-05-16,14479.3388
1922-05-17,14479.3388
1922-05-18,17851.2397
1922-05-19,22254.5455
1922-05-20,24178.5124
1922-05-21,25923.9669
1922-05-22,28482.6446
1922-05-23,25705.7851
1922-05-24,25963.6364
1922-05-25,27887.6033
1922-05-26,29434.7107
1922-05-27,30664.4628
1922-05-28,32033.0579
1922-05-29,30922.3141
1922-05-30,31656.1984
1922-05-31,29434.7107
1922-06-01,25309.0909
1922-06-02,22492.562
1922-06-03,21421.4876
1922-06-04,20390.0826
1922-06-05,20171.9008
1922-06-06,21223.1405
1922-06-07,21659.5041
1922-06-08,21044.6281
1922-06-09,22968.595
1922-06-10,23623.1405
1922-06-11,24257.8512
1922-06-12,21917.3554
1922-06-13,20231.405
1922-06-14,19041.3223
1922-06-15,17771.9008
1922-06-16,15788.4298
1922-06-17,13249.5868
1922-06-18,12138.843
1922-06-19,12555.3719
1922-06-20,12138.843
1922-06-21,11761.9835
1922-06-22,12614.876
1922-06-23,10790.0826
1922-06-24,10333.8843
1922-06-25,9401.65289
1922-06-26,8628.09917
1922-06-27,7723.63636
1922-06-28,6712.06612
1922-06-29,6184.46281
1922-06-30,5724.29752
1922-07-01,5605.28926
1922-07-02,5525.95041
1922-07-03,5347.43802
1922-07-04,4819.83471
1922-07-05,4355.70248
1922-07-06,3955.04132
1922-07-07,3756.69421
1922-07-08,3479.00826
1922-07-09,3796.36364
1922-07-10,3915.3719
1922-07-11,3697.19008
1922-07-12,3518.67769
1922-07-13,3324.29752
1922-07-14,3201.32231
1922-07-15,3014.87603
1922-07-16,2848.26446
1922-07-17,2530.90909
1922-07-18,2332.56198
1922-07-19,2023.1405
1922-07-20,1348.76033
1922-07-21,1249.58678
1922-07-22,1241.65289
1922-07-23,1122.64463
1922-07-24,1162.31405
1922-07-25,963.96694
1922-07-26,916.36364
1922-07-27,868.76033
1922-07-28,880.66116
1922-07-29,864.79339
1922-07-30,817.19008
1922-07-31,793.38843
1922-08-01,912.39669
1922-08-02,936.19835
1922-08-03,793.38843
1922-08-04,936.19835
1922-08-05,936.19835
1922-08-06,876.69421
1922-08-07,817.19008
1922-08-08,817.19008
1922-08-09,706.1157
1922-08-10,706.1157
1922-08-11,805.28926
1922-08-12,805.28926
1922-08-13,817.19008
1922-08-14,793.38843
1922-08-15,793.38843
1922-08-16,805.28926
1922-08-17,706.1157
1922-08-18,670.41322
1922-08-19,670.41322
1922-08-20,769.58678
1922-08-21,1059.17355
1922-08-22,1182.14876
1922-08-23,936.19835
1922-08-24,936.19835
1922-08-25,793.38843
1922-08-26,769.58678
1922-08-27,704.13223
1922-08-28,654.54545
1922-08-29,555.3719
1922-08-30,555.3719
1922-08-31,555.3719
1922-09-01,654.54545
1922-09-02,654.54545
1922-09-03,654.54545
1922-09-04,654.54545
1922-09-05,553.38843
1922-09-06,551.40496
1922-09-07,549.42149
1922-09-08,551.40496
1922-09-09,454.21488
1922-09-10,456.19835
1922-09-11,454.21488
1922-09-12,452.2314
1922-09-13,360.99174
1922-09-14,307.43802
1922-09-15,313.38843
1922-09-16,319.33884
1922-09-17,323.30579
1922-09-18,319.33884
1922-09-19,315.3719
1922-09-20,311.40496
1922-09-21,307.43802
1922-09-22,305.45455
1922-09-23,303.47107
1922-09-24,301.4876
1922-09-25,299.50413
1922-09-26,297.52066
1922-09-27,295.53719
1922-09-28,299.50413
1922-09-29,301.4876
1922-09-30,301.4876
1922-10-01,456.19835
1922-10-02,464.13223
1922-10-03,464.13223
1922-10-04,464.13223
1922-10-05,382.80992
1922-10-06,382.80992
1922-10-07,335.20661
1922-10-08,323.30579
1922-10-09,335.20661
1922-10-10,335.20661
1922-10-11,347.10744
1922-10-12,347.10744
1922-10-13,418.5124
1922-10-14,418.5124
1922-10-15,418.5124
1922-10-16,418.5124
1922-10-17,533.55372
1922-10-18,519.66942
1922-10-19,519.66942
1922-10-20,519.66942
1922-10-21,533.55372
1922-10-22,519.66942
1922-10-23,533.55372
1922-10-24,533.55372
1922-10-25,547.43802
1922-10-26,547.43802
1922-10-27,547.43802
1922-10-28,547.43802
1922-10-29,533.55372
1922-10-30,533.55372
1922-10-31,519.66942
1922-11-01,632.72727
1922-11-02,618.84298
1922-11-03,618.84298
1922-11-04,618.84298
1922-11-05,557.35537
1922-11-06,507.7686
1922-11-07,519.66942
1922-11-08,507.7686
1922-11-09,595.04132
1922-11-10,606.94215
1922-11-11,694.21488
1922-11-12,694.21488
1922-11-13,694.21488
1922-11-14,595.04132
1922-11-15,606.94215
1922-11-16,507.7686
1922-11-17,618.84298
1922-11-18,718.01653
1922-11-19,668.42975
1922-11-20,618.84298
1922-11-21,632.72727
1922-11-22,646.61157
1922-11-23,507.7686
1922-11-24,606.94215
1922-11-25,718.01653
1922-11-26,781.4876
1922-11-27,817.19008
1922-11-28,805.28926
1922-11-29,718.01653
1922-11-30,595.04132
1922-12-01,545.45455
1922-12-02,961.98347
1922-12-03,545.45455
1922-12-04,743.80165
1922-12-05,842.97521
1922-12-06,842.97521
1922-12-07,842.97521
1922-12-08,842.97521
1922-12-09,842.97521
1922-12-10,862.80992
1922-12-11,862.80992
1922-12-12,862.80992
1922-12-13,862.80992
1922-12-14,862.80992
1922-12-15,862.80992
1922-12-16,862.80992
1922-12-17,862.80992
1922-12-18,872.72727
1922-12-19,872.72727
1922-12-20,872.72727
1922-12-21,872.72727
1922-12-22,872.72727
1922-12-23,872.72727
1922-12-24,872.72727
1922-12-25,872.72727
1922-12-26,872.72727
1922-12-27,872.72727
1922-12-28,872.72727
1922-12-29,872.72727
1922-12-30,872.72727
1922-12-31,872.72727
1923-01-01,829.09091
1923-01-02,829.09091
1923-01-03,829.09091
1923-01-04,829.09091
1923-01-05,829.09091
1923-01-06,829.09091
1923-01-07,829.09091
1923-01-08,829.09091
1923-01-09,829.09091
1923-01-10,829.09091
1923-01-11,829.09091
1923-01-12,829.09091
1923-01-13,829.09091
1923-01-14,829.09091
1923-01-15,829.09091
1923-01-16,829.09091
1923-01-17,829.09091
1923-01-18,829.09091
1923-01-19,829.09091
1923-01-20,829.09091
1923-01-21,829.09091
1923-01-22,829.09091
1923-01-23,829.09091
1923-01-24,829.09091
1923-01-25,829.09091
1923-01-26,829.09091
1923-01-27,829.09091
1923-01-28,829.09091
1923-01-29,829.09091
1923-01-30,829.09091
1923-01-31,829.09091
1923-02-01,860.82645
1923-02-02,860.82645
1923-02-03,860.82645
1923-02-04,860.82645
1923-02-05,860.82645
1923-02-06,860.82645
1923-02-07,860.82645
1923-02-08,860.82645
1923-02-09,860.82645
1923-02-10,860.82645
1923-02-11,860.82645
1923-02-12,860.82645
1923-02-13,860.82645
1923-02-14,860.82645
1923-02-15,860.82645
1923-02-16,860.82645
1923-02-17,860.82645
1923-02-18,860.82645
1923-02-19,860.82645
1923-02-20,860.82645
1923-02-21,860.82645
1923-02-22,860.82645
1923-02-23,860.82645
1923-02-24,860.82645
1923-02-25,860.82645
1923-02-26,860.82645
1923-02-27,860.82645
1923-02-28,860.82645
1923-03-01,1400.33058
1923-03-02,1400.33058
1923-03-03,1400.33058
1923-03-04,1400.33058
1923-03-05,1400.33058
1923-03-06,1400.33058
1923-03-07,1400.33058
1923-03-08,1400.33058
1923-03-09,1400.33058
1923-03-10,1400.33058
1923-03-11,1400.33058
1923-03-12,1400.33058
1923-03-13,1400.33058
1923-03-14,1400.33058
1923-03-15,1400.33058
1923-03-16,1400.33058
1923-03-17,1400.33058
1923-03-18,1400.33058
1923-03-19,1400.33058
1923-03-20,1400.33058
1923-03-21,1400.33058
1923-03-22,1400.33058
1923-03-23,1400.33058
1923-03-24,1400.33058
1923-03-25,1400.33058
1923-03-26,1400.33058
1923-03-27,1400.33058
1923-03-28,1400.33058
1923-03-29,1400.33058
1923-03-30,1400.33058
1923-03-31,1400.33058
1923-04-01,3332.2314
1923-04-02,3332.2314
1923-04-03,3530.57851
1923-04-04,3728.92562
1923-04-05,3927.27273
1923-04-06,4125.61983
1923-04-07,4323.96694
1923-04-08,4720.66116
1923-04-09,5117.35537
1923-04-10,5514.04959
1923-04-11,5910.7438
1923-04-12,6307.43802
1923-04-13,7299.17355
1923-04-14,6902.47934
1923-04-15,6307.43802
1923-04-16,9084.29752
1923-04-17,9897.52066
1923-04-18,11008.2645
1923-04-19,12019.8347
1923-04-20,13685.9504
1923-04-21,13190.0826
1923-04-22,10849.5868
1923-04-23,9441.32231
1923-04-24,8390.08264
1923-04-25,7854.54545
1923-04-26,9877.68595
1923-04-27,11266.1157
1923-04-28,12337.1901
1923-04-29,12515.7025
1923-04-30,13368.595
1923-05-01,16998.3471
1923-05-02,15887.6033
1923-05-03,15887.6033
1923-05-04,16145.4546
1923-05-05,21798.3471
1923-05-06,23385.124
1923-05-07,24773.5537
1923-05-08,24138.843
1923-05-09,22909.0909
1923-05-10,24297.5207
1923-05-11,25368.595
1923-05-12,25725.6198
1923-05-13,20826.4463
1923-05-14,18327.2727
1923-05-15,17395.0413
1923-05-16,15709.0909
1923-05-17,16125.6198
1923-05-18,15371.9008
1923-05-19,20469.4215
1923-05-20,22671.0744
1923-05-21,23841.3223
1923-05-22,22968.595
1923-05-23,20925.6198
1923-05-24,22076.0331
1923-05-25,24654.5455
1923-05-26,27371.9008
1923-05-27,29256.1984
1923-05-28,30644.6281
1923-05-29,30743.8017
1923-05-30,28264.4628
1923-05-31,25785.124
1923-06-01,24833.0579
1923-06-02,25150.4132
1923-06-03,24396.6942
1923-06-04,24198.3471
1923-06-05,24138.843
1923-06-06,23067.7686
1923-06-07,20945.4546
1923-06-08,19338.843
1923-06-09,19438.0165
1923-06-10,20885.9504
1923-06-11,21778.5124
1923-06-12,21242.9752
1923-06-13,21540.4959
1923-06-14,21897.5207
1923-06-15,21838.0165
1923-06-16,21183.4711
1923-06-17,20647.9339
1923-06-18,19537.1901
1923-06-19,17057.8512
1923-06-20,15431.405
1923-06-21,15173.5537
1923-06-22,14717.3554
1923-06-23,13646.281
1923-06-24,8707.43802
1923-06-25,11623.1405
1923-06-26,11543.8017
1923-06-27,11145.124
1923-06-28,10920.9917
1923-06-29,9818.18182
1923-06-30,8616.19835
1923-07-01,8128.26446
1923-07-02,7560.99174
1923-07-03,7063.1405
1923-07-04,6648.59504
1923-07-05,6287.60331
1923-07-06,5910.7438
1923-07-07,5474.38017
1923-07-08,4843.63636
1923-07-09,5028.09917
1923-07-10,5498.18182
1923-07-11,5446.61157
1923-07-12,4982.47934
1923-07-13,4661.15702
1923-07-14,4387.43802
1923-07-15,4085.95041
1923-07-16,4780.16529
1923-07-17,5188.76033
1923-07-18,4684.95868
1923-07-19,4165.28926
1923-07-20,3828.09917
1923-07-21,3578.18182
1923-07-22,3296.52893
1923-07-23,3292.56198
1923-07-24,3550.41322
1923-07-25,3653.55372
1923-07-26,2675.70248
1923-07-27,2394.04959
1923-07-28,2394.04959
1923-07-29,2275.04132
1923-07-30,1941.81818
1923-07-31,1664.13223
1923-08-01,1570.90909
1923-08-02,1457.85124
1923-08-03,1566.94215
1923-08-04,1479.66942
1923-08-05,1436.03306
1923-08-06,1348.76033
1923-08-07,1305.12397
1923-08-08,1348.76033
1923-08-09,1388.42975
1923-08-10,1344.79339
1923-08-11,1628.42975
1923-08-12,1785.12397
1923-08-13,1410.24793
1923-08-14,1628.42975
1923-08-15,1523.30579
1923-08-16,2185.78512
1923-08-17,1858.5124
1923-08-18,1517.35537
1923-08-19,1404.29752
1923-08-20,1426.1157
1923-08-21,1368.59504
1923-08-22,1311.07438
1923-08-23,1297.19008
1923-08-24,1164.29752
1923-08-25,1106.77686
1923-08-26,1025.45455
1923-08-27,920.33058
1923-08-28,890.57851
1923-08-29,835.04132
1923-08-30,785.45455
1923-08-31,821.15702
1923-09-01,1142.47934
1923-09-02,1007.60331
1923-09-03,1172.2314
1923-09-04,1084.95868
1923-09-05,1067.10744
1923-09-06,924.29752
1923-09-07,884.6281
1923-09-08,840.99174
1923-09-09,807.27273
1923-09-10,787.43802
1923-09-11,797.35537
1923-09-12,821.15702
1923-09-13,835.04132
1923-09-14,811.23967
1923-09-15,811.23967
1923-09-16,831.07438
1923-09-17,874.71074
1923-09-18,884.6281
1923-09-19,948.09917
1923-09-20,1090.90909
1923-09-21,1326.94215
1923-09-22,1344.79339
1923-09-23,1201.98347
1923-09-24,1075.04132
1923-09-25,995.70248
1923-09-26,995.70248
1923-09-27,1090.90909
1923-09-28,1170.24793
1923-09-29,1138.5124
1923-09-30,1138.5124
1923-10-01,1160.33058
1923-10-02,1164.29752
1923-10-03,1178.18182
1923-10-04,1148.42975
1923-10-05,1128.59504
1923-10-06,1168.26446
1923-10-07,1231.73554
1923-10-08,1414.21488
1923-10-09,1332.89256
1923-10-10,1283.30579
1923-10-11,1352.72727
1923-10-12,1386.44628
1923-10-13,1380.49587
1923-10-14,1223.80165
1923-10-15,1152.39669
1923-10-16,1184.13223
1923-10-17,1152.39669
1923-10-18,1116.69421
1923-10-19,1086.94215
1923-10-20,1031.40496
1923-10-21,1013.55372
1923-10-22,1192.06612
1923-10-23,1340.82645
1923-10-24,1400.33058
1923-10-25,1366.61157
1923-10-26,1336.8595
1923-10-27,1281.32231
1923-10-28,1219.83471
1923-10-29,1269.42149
1923-10-30,1231.73554
1923-10-31,1231.73554
1923-11-01,1033.38843
1923-11-02,1013.55372
1923-11-03,916.36364
1923-11-04,904.46281
1923-11-05,973.8843
1923-11-06,973.8843
1923-11-07,956.03306
1923-11-08,904.46281
1923-11-09,888.59504
1923-11-10,882.64463
1923-11-11,904.46281
1923-11-12,900.49587
1923-11-13,956.03306
1923-11-14,916.36364
1923-11-15,916.36364
1923-11-16,916.36364
1923-11-17,916.36364
1923-11-18,916.36364
1923-11-19,916.36364
1923-11-20,916.36364
1923-11-21,892.56198
1923-11-22,882.64463
1923-11-23,872.72727
1923-11-24,852.89256
1923-11-25,842.97521
1923-11-26,833.05785
1923-11-27,833.05785
1923-11-28,833.05785
1923-11-29,833.05785
1923-11-30,833.05785
1923-12-01,634.71074
1923-12-02,634.71074
1923-12-03,634.71074
1923-12-04,634.71074
1923-12-05,634.71074
1923-12-06,634.71074
1923-12-07,634.71074
1923-12-08,634.71074
1923-12-09,634.71074
1923-12-10,634.71074
1923-12-11,634.71074
1923-12-12,634.71074
1923-12-13,634.71074
1923-12-14,634.71074
1923-12-15,634.71074
1923-12-16,634.71074
1923-12-17,634.71074
1923-12-18,634.71074
1923-12-19,634.71074
1923-12-20,634.71074
1923-12-21,634.71074
1923-12-22,634.71074
1923-12-23,634.71074
1923-12-24,634.71074
1923-12-25,634.71074
1923-12-26,634.71074
1923-12-27,634.71074
1923-12-28,634.71074
1923-12-29,634.71074
1923-12-30,634.71074
1923-12-31,634.71074
1924-01-01,624.79339
1924-01-02,624.79339
1924-01-03,624.79339
1924-01-04,624.79339
1924-01-05,624.79339
1924-01-06,624.79339
1924-01-07,624.79339
1924-01-08,624.79339
1924-01-09,624.79339
1924-01-10,624.79339
1924-01-11,624.79339
1924-01-12,624.79339
1924-01-13,624.79339
1924-01-14,624.79339
1924-01-15,624.79339
1924-01-16,624.79339
1924-01-17,624.79339
1924-01-18,624.79339
1924-01-19,624.79339
1924-01-20,624.79339
1924-01-21,624.79339
1924-01-22,624.79339
1924-01-23,624.79339
1924-01-24,624.79339
1924-01-25,624.79339
1924-01-26,624.79339
1924-01-27,624.79339
1924-01-28,624.79339
1924-01-29,624.79339
1924-01-30,624.79339
1924-01-31,624.79339
1924-02-01,714.04959
1924-02-02,714.04959
1924-02-03,714.04959
1924-02-04,714.04959
1924-02-05,714.04959
1924-02-06,714.04959
1924-02-07,714.04959
1924-02-08,714.04959
1924-02-09,714.04959
1924-02-10,714.04959
1924-02-11,714.04959
1924-02-12,714.04959
1924-02-13,714.04959
1924-02-14,714.04959
1924-02-15,714.04959
1924-02-16,714.04959
1924-02-17,714.04959
1924-02-18,714.04959
1924-02-19,714.04959
1924-02-20,714.04959
1924-02-21,714.04959
1924-02-22,714.04959
1924-02-23,714.04959
1924-02-24,714.04959
1924-02-25,714.04959
1924-02-26,714.04959
1924-02-27,714.04959
1924-02-28,714.04959
1924-02-29,714.04959
1924-03-01,932.2314
1924-03-02,932.2314
1924-03-03,932.2314
1924-03-04,932.2314
1924-03-05,932.2314
1924-03-06,932.2314
1924-03-07,932.2314
1924-03-08,932.2314
1924-03-09,932.2314
1924-03-10,932.2314
1924-03-11,932.2314
1924-03-12,932.2314
1924-03-13,932.2314
1924-03-14,932.2314
1924-03-15,932.2314
1924-03-16,932.2314
1924-03-17,932.2314
1924-03-18,932.2314
1924-03-19,932.2314
1924-03-20,932.2314
1924-03-21,932.2314
1924-03-22,932.2314
1924-03-23,932.2314
1924-03-24,932.2314
1924-03-25,932.2314
1924-03-26,932.2314
1924-03-27,932.2314
1924-03-28,932.2314
1924-03-29,932.2314
1924-03-30,932.2314
1924-03-31,932.2314
1924-04-01,1983.47107
1924-04-02,3371.90083
1924-04-03,3867.7686
1924-04-04,4085.95041
1924-04-05,4601.65289
1924-04-06,5216.52893
1924-04-07,5593.38843
1924-04-08,6347.10744
1924-04-09,7933.8843
1924-04-10,9520.66116
1924-04-11,12595.0413
1924-04-12,12297.5207
1924-04-13,13487.6033
1924-04-14,15867.7686
1924-04-15,16363.6364
1924-04-16,14003.3058
1924-04-17,9421.4876
1924-04-18,6485.95041
1924-04-19,5176.8595
1924-04-20,5182.80992
1924-04-21,6025.78512
1924-04-22,7390.41322
1924-04-23,8826.44628
1924-04-24,9917.35537
1924-04-25,10631.405
1924-04-26,9778.5124
1924-04-27,7894.21488
1924-04-28,7061.15702
1924-04-29,6803.30579
1924-04-30,7080.99174
1924-05-01,7457.85124
1924-05-02,8350.41322
1924-05-03,9361.98347
1924-05-04,13447.9339
1924-05-05,16502.4793
1924-05-06,16105.7851
1924-05-07,15054.5455
1924-05-08,13646.281
1924-05-09,13566.9422
1924-05-10,12595.0413
1924-05-11,12317.3554
1924-05-12,13765.2893
1924-05-13,15431.405
1924-05-14,16046.281
1924-05-15,16780.1653
1924-05-16,17018.1818
1924-05-17,17732.2314
1924-05-18,18743.8017
1924-05-19,19914.0496
1924-05-20,18505.7851
1924-05-21,17137.1901
1924-05-22,16899.1736
1924-05-23,17315.7025
1924-05-24,17732.2314
1924-05-25,17315.7025
1924-05-26,17811.5703
1924-05-27,19914.0496
1924-05-28,20965.2893
1924-05-29,19338.843
1924-05-30,18208.2645
1924-05-31,17851.2397
1924-06-01,16780.1653
1924-06-02,15391.7355
1924-06-03,15054.5455
1924-06-04,13804.9587
1924-06-05,16085.9504
1924-06-06,17097.5207
1924-06-07,17335.5372
1924-06-08,18029.7521
1924-06-09,16621.4876
1924-06-10,13666.1157
1924-06-11,12793.3884
1924-06-12,13487.6033
1924-06-13,14816.5289
1924-06-14,16264.4628
1924-06-15,17434.7107
1924-06-16,17613.2231
1924-06-17,16085.9504
1924-06-18,14179.8347
1924-06-19,12085.2893
1924-06-20,10520.3306
1924-06-21,8782.80992
1924-06-22,7441.98347
1924-06-23,6961.98347
1924-06-24,6458.18182
1924-06-25,6180.49587
1924-06-26,5974.21488
1924-06-27,5633.05785
1924-06-28,5077.68595
1924-06-29,4633.38843
1924-06-30,4216.8595
1924-07-01,3939.17355
1924-07-02,3701.15702
1924-07-03,3395.70248
1924-07-04,3046.61157
1924-07-05,2760.99174
1924-07-06,2614.21488
1924-07-07,2455.53719
1924-07-08,2368.26446
1924-07-09,2439.66942
1924-07-10,2372.2314
1924-07-11,2372.2314
1924-07-12,2479.33884
1924-07-13,2709.42149
1924-07-14,2505.12397
1924-07-15,2386.1157
1924-07-16,2241.32231
1924-07-17,2052.89256
1924-07-18,1862.47934
1924-07-19,1687.93388
1924-07-20,1557.02479
1924-07-21,1426.1157
1924-07-22,1243.63636
1924-07-23,1122.64463
1924-07-24,1003.63636
1924-07-25,844.95868
1924-07-26,725.95041
1924-07-27,674.38017
1924-07-28,666.44628
1924-07-29,654.54545
1924-07-30,634.71074
1924-07-31,622.80992
1924-08-01,610.90909
1924-08-02,606.94215
1924-08-03,600.99174
1924-08-04,600.99174
1924-08-05,595.04132
1924-08-06,589.09091
1924-08-07,583.1405
1924-08-08,579.17355
1924-08-09,579.17355
1924-08-10,579.17355
1924-08-11,573.22314
1924-08-12,567.27273
1924-08-13,557.35537
1924-08-14,547.43802
1924-08-15,535.53719
1924-08-16,525.61983
1924-08-17,515.70248
1924-08-18,521.65289
1924-08-19,525.61983
1924-08-20,515.70248
1924-08-21,499.83471
1924-08-22,480.0
1924-08-23,464.13223
1924-08-24,448.26446
1924-08-25,438.34711
1924-08-26,428.42975
1924-08-27,402.64463
1924-08-28,351.07438
1924-08-29,323.30579
1924-08-30,313.38843
1924-08-31,303.47107
1924-09-01,289.58678
1924-09-02,265.78512
1924-09-03,275.70248
1924-09-04,265.78512
1924-09-05,313.38843
1924-09-06,360.99174
1924-09-07,412.56198
1924-09-08,422.47934
1924-09-09,422.47934
1924-09-10,428.42975
1924-09-11,432.39669
1924-09-12,662.47934
1924-09-13,432.39669
1924-09-14,428.42975
1924-09-15,438.34711
1924-09-16,474.04959
1924-09-17,483.96694
1924-09-18,483.96694
1924-09-19,474.04959
1924-09-20,470.08264
1924-09-21,478.01653
1924-09-22,529.58678
1924-09-23,521.65289
1924-09-24,549.42149
1924-09-25,549.42149
1924-09-26,537.52066
1924-09-27,557.35537
1924-09-28,595.04132
1924-09-29,589.09091
1924-09-30,583.1405
1924-10-01,610.90909
1924-10-02,624.79339
1924-10-03,668.42975
1924-10-04,676.36364
1924-10-05,668.42975
1924-10-06,668.42975
1924-10-07,676.36364
1924-10-08,684.29752
1924-10-09,692.2314
1924-10-10,777.52066
1924-10-11,1090.90909
1924-10-12,1055.20661
1924-10-13,952.06612
1924-10-14,932.2314
1924-10-15,862.80992
1924-10-16,819.17355
1924-10-17,924.29752
1924-10-18,975.86777
1924-10-19,1059.17355
1924-10-20,1082.97521
1924-10-21,1245.61983
1924-10-22,1257.52066
1924-10-23,1352.72727
1924-10-24,1227.7686
1924-10-25,1130.57851
1924-10-26,1045.28926
1924-10-27,1067.10744
1924-10-28,1011.57025
1924-10-29,1035.3719
1924-10-30,1120.66116
1924-10-31,1079.00826